DW7249 Cayey PR US current weather conditions

sailwx.info

Wind from 098

Air temperature 25.6° C
Dewpoint 21.2° C

Last reported at 2018-Apr-19 18:56 UTC.
Time now 2018-Apr-19 19:34 UTC

Location: N 18°08' W 066°08'.
View on Google Maps.

See reports from other nearby stations

  
Tides and Currents Weather Stations Pressure Air Temp Water Temp Dewpoint Dewpoint Depression Visibility Wind Speed Wind Dir Waves Ship Positions
date/time (UTC)wind fromknots sea level pressurealtimeterstation pressurevisibilityair tempwater tempwave heightnotes
2018-Apr-19 18:56 098 25.6
2018-Apr-19 18:41 124 25.6
2018-Apr-19 18:26 169 24.4
2018-Apr-19 18:11 141 23.9
2018-Apr-19 17:56 149 26.1
2018-Apr-19 17:41 160 0 gusting 6 25.6
2018-Apr-19 17:26 162 24.4
2018-Apr-19 17:11 131 23.3
2018-Apr-19 16:56 173 22.2
2018-Apr-19 16:41 165 2 gusting 13 23.9
2018-Apr-19 16:26 188 24.4
2018-Apr-19 16:11 173 24.4
2018-Apr-19 15:56 167 25.0
2018-Apr-19 15:41 169 25.0
2018-Apr-19 15:26 091 25.0
2018-Apr-19 15:11 144 26.1
2018-Apr-19 14:56 108 25.6
2018-Apr-19 14:41 135 25.6
2018-Apr-19 14:25 152 25.0
2018-Apr-19 14:10 191 0 gusting 6 24.4
2018-Apr-19 13:55 163 24.4
2018-Apr-19 13:40 166 25.0
2018-Apr-19 13:25 145 24.4
2018-Apr-19 13:10 160 24.4
2018-Apr-19 12:55 152 23.9
2018-Apr-19 12:40 100 0 gusting 5 23.9
2018-Apr-19 12:25 143 23.3
2018-Apr-19 12:10 115 22.2
2018-Apr-19 11:55 198 0 gusting 4 22.2
2018-Apr-19 11:40 153 22.2
2018-Apr-19 11:25 158 0 gusting 6 22.2
2018-Apr-19 11:10 135 2 gusting 10 22.2
2018-Apr-19 10:55 116 21.7
2018-Apr-19 10:40 113 21.7
2018-Apr-19 10:25 160 21.1
2018-Apr-19 10:10 115 0 gusting 5 21.1
2018-Apr-19 09:55 022 21.1
2018-Apr-19 09:40 122 20.6
2018-Apr-19 09:25 124 20.6
2018-Apr-19 09:10 120 20.6
2018-Apr-19 08:55 160 20.6
2018-Apr-19 08:40 116 21.1
2018-Apr-19 08:25 092 21.1
2018-Apr-19 08:10 113 21.1
2018-Apr-19 07:55 149 21.7
2018-Apr-19 07:40 103 21.7
2018-Apr-19 07:25 160 21.7
2018-Apr-19 07:10 121 21.7
2018-Apr-19 06:55 125 21.7
2018-Apr-19 06:40 113 21.7
2018-Apr-19 06:25 145 21.7
2018-Apr-19 06:10 097 21.7
2018-Apr-19 05:54 089 22.2
2018-Apr-19 05:39 087 22.2
2018-Apr-19 05:24 164 22.2
2018-Apr-19 05:12
2018-Apr-18 14:20 162 27.2
2018-Apr-18 14:05 187 27.2
2018-Apr-18 13:50 149 26.7
2018-Apr-18 13:35 153 26.7
2018-Apr-18 13:20 116 26.1
2018-Apr-18 13:05 084 26.1
2018-Apr-18 12:50 096 25.6
2018-Apr-18 12:35 127 25.6
2018-Apr-18 12:20 110 24.4
2018-Apr-18 12:05 112 23.9
2018-Apr-18 11:49 100 22.8
2018-Apr-18 11:34 075 21.7
2018-Apr-18 11:19 111 20.6
2018-Apr-18 11:04 113 19.4
2018-Apr-18 10:49 125 19.4
2018-Apr-18 10:34 082 19.4
2018-Apr-18 10:19 082 19.4
2018-Apr-18 10:04 139 19.4
2018-Apr-18 09:49 090 19.4
2018-Apr-18 09:34 333 19.4
2018-Apr-18 09:19 335 19.4
2018-Apr-18 09:04 032 19.4
2018-Apr-18 08:49 134 19.4
2018-Apr-18 08:34 145 19.4
2018-Apr-18 08:19 025 19.4
2018-Apr-18 08:04 122 20.0
2018-Apr-18 07:49 318 20.0
2018-Apr-18 07:34 339 20.0
2018-Apr-18 07:19 053 20.0
2018-Apr-18 07:04 053 20.0
2018-Apr-18 06:49 053 20.6
2018-Apr-18 06:34 347 20.6
2018-Apr-18 06:19 326 21.1
2018-Apr-18 06:04 326 21.1
2018-Apr-18 05:49 058 21.1
2018-Apr-18 05:34 112 21.1
2018-Apr-18 05:19 104 21.1
2018-Apr-18 05:04 040 21.1
2018-Apr-18 04:49 095 21.1
2018-Apr-18 04:34 163 21.1
2018-Apr-18 04:19 108 21.1
2018-Apr-18 04:04 015 21.1
2018-Apr-18 03:49 326 21.1
2018-Apr-18 03:34 322 21.7
2018-Apr-18 03:19 065 21.7
2018-Apr-18 03:04 106 22.2
2018-Apr-18 02:49 082 22.2
2018-Apr-18 02:34 049 22.2
2018-Apr-18 02:19 078 22.2
2018-Apr-18 02:04 107 22.2
2018-Apr-18 01:49 131 22.2
2018-Apr-18 01:34 163 22.2
2018-Apr-18 01:19 120 22.2
2018-Apr-18 01:04 134 22.8
2018-Apr-18 00:49 126 22.8
2018-Apr-18 00:34 130 22.8
2018-Apr-18 00:18 113 23.3
2018-Apr-18 00:04 113 23.3
2018-Apr-17 23:48 131 23.3
2018-Apr-17 23:33 123 23.3
2018-Apr-17 23:18 101 23.3
2018-Apr-17 23:03 120 23.3
2018-Apr-17 22:48 143 23.3
2018-Apr-17 22:34 132 23.9
2018-Apr-17 22:18 153 24.4
2018-Apr-17 22:03 192 24.4
2018-Apr-17 21:48 133 25.0
2018-Apr-17 21:33 200 25.6
2018-Apr-17 21:18 163 26.1
2018-Apr-17 21:03 157 26.1
2018-Apr-17 20:48 139 25.6
2018-Apr-17 20:33 135 25.6
2018-Apr-17 20:18 178 25.6
2018-Apr-17 20:03 138 26.1
2018-Apr-17 19:48 115 26.1
2018-Apr-17 19:33 165 26.7
2018-Apr-17 19:18 150 27.2
2018-Apr-17 19:03 149 27.8